Location: Alafon
(8.4500°N, 4.2333°E)
Time: 08:04:49
(UTC+00:00)

deb Explorer IX - All Passes

Search period start: 24 July 2021 00:00
Search period end: 03 August 2021 00:00
Orbit: 542 x 1096 km, 38.8° (Epoch: 23 July)

Date Brightness Start Highest point End Pass type
(mag) Time Alt. Az. Time Alt. Az. Time Alt. Az.
24 Jul - 00:43:12 10° W 00:48:48 28° SW 00:53:50 10° SSE night (unlit)
24 Jul - 11:40:52 10° SSW 11:44:43 26° SE 11:49:01 10° E daylight
24 Jul - 13:26:42 10° WSW 13:31:23 40° NW 13:36:52 10° NNE daylight
24 Jul - 20:45:44 10° N 20:49:31 15° NNE 20:53:13 10° ENE visible
24 Jul - 22:30:34 10° NW 22:37:39 57° NE 22:44:05 10° ESE visible
25 Jul - 00:18:54 10° WNW 00:24:40 29° SW 00:29:55 10° SSE night (unlit)
25 Jul - 11:17:01 10° SSW 11:20:43 25° SE 11:24:50 10° E daylight
25 Jul - 13:02:50 10° WSW 13:07:22 39° NW 13:12:38 10° NNE daylight
25 Jul - 20:21:32 10° N 20:25:20 15° NNE 20:29:05 10° ENE visible
25 Jul - 22:06:20 10° NW 22:13:27 57° NE 22:20:02 10° ESE visible
25 Jul - 23:54:37 10° WNW 00:00:32 29° SW 00:05:56 10° SSE night (unlit)
26 Jul - 10:53:10 10° S 10:56:43 24° SE 11:00:38 10° E daylight
26 Jul - 12:38:57 10° WSW 12:43:20 38° NW 12:48:24 10° NNE daylight
26 Jul - 19:57:22 10° N 20:01:08 15° NNE 20:04:54 10° ENE visible
26 Jul - 21:42:05 10° NW 21:49:14 57° NE 21:55:57 10° ESE visible
26 Jul - 23:30:19 10° WNW 23:36:22 30° SW 23:41:56 10° SSE night (unlit)
27 Jul - 10:29:17 10° S 10:32:43 23° SE 10:36:28 10° E daylight
27 Jul - 12:15:04 10° WSW 12:19:18 37° NW 12:24:10 10° NNE daylight
27 Jul - 19:33:11 10° N 19:36:56 15° NNE 19:40:41 10° ENE visible
27 Jul - 21:17:51 10° NW 21:24:59 57° NE 21:31:49 10° ESE visible
27 Jul - 23:06:01 10° WNW 23:12:10 31° SW 23:17:54 10° SSE night (unlit)
28 Jul - 10:05:24 10° S 10:08:44 23° SE 10:12:18 10° E daylight
28 Jul - 11:51:11 10° WSW 11:55:17 36° NW 11:59:57 10° NNE daylight
28 Jul - 19:09:03 10° N 19:12:42 14° NNE 19:16:25 10° ENE visible
28 Jul - 20:53:36 10° NW 21:00:44 57° NE 21:07:39 10° ESE visible
28 Jul - 22:41:42 10° WNW 22:47:56 31° SW 22:53:48 10° SSE visible
29 Jul - 09:41:29 10° S 09:44:43 22° SE 09:48:10 10° E daylight
29 Jul - 11:27:16 10° WSW 11:31:15 35° NW 11:35:44 10° NNE daylight
29 Jul - 18:44:55 10° N 18:48:29 14° NNE 18:52:05 10° ENE visible
29 Jul - 20:29:22 10° NW 20:36:27 57° NE 20:43:28 10° ESE visible
29 Jul - 22:17:24 10° WNW 22:23:41 32° SW 22:29:42 10° SSE visible
30 Jul - 09:17:32 10° S 09:20:42 21° SE 09:24:01 10° E daylight
30 Jul - 11:03:20 10° WSW 11:07:13 34° NW 11:11:32 10° NNE daylight
30 Jul - 18:20:50 10° N 18:24:14 14° NNE 18:27:43 10° ENE visible
30 Jul - 20:05:09 10° NW 20:12:10 57° NE 20:19:14 10° ESE visible
30 Jul - 21:53:06 10° WNW 21:59:26 32° SW 22:05:33 10° SSE visible
31 Jul - 08:53:33 10° S 08:56:40 21° SE 08:59:54 10° E daylight
31 Jul - 10:39:23 10° WSW 10:43:10 33° NW 10:47:20 10° NNE daylight
31 Jul - 17:56:46 10° N 17:59:59 14° NNE 18:03:18 10° ENE daylight
31 Jul - 19:40:56 10° NW 19:47:51 57° NE 19:54:58 10° ESE visible
31 Jul - 21:28:48 10° WNW 21:35:08 33° SW 21:41:21 10° SSE visible
01 Aug - 08:29:32 10° S 08:32:38 21° SE 08:35:47 10° E daylight
01 Aug - 10:15:25 10° WSW 10:19:08 33° NW 10:23:09 10° NNE daylight
01 Aug - 17:32:44 10° N 17:35:44 13° NNE 17:38:50 10° ENE daylight
01 Aug - 19:16:43 10° NW 19:23:32 56° NE 19:30:40 10° ESE visible
01 Aug - 21:04:30 10° WNW 21:10:50 33° SW 21:17:07 10° SSE visible
02 Aug - 08:05:29 10° S 08:08:35 21° SE 08:11:41 10° E daylight
02 Aug - 09:51:25 10° WSW 09:55:05 32° NW 09:58:59 10° NNE daylight
02 Aug - 17:08:43 10° N 17:11:29 13° NNE 17:14:19 10° ENE daylight
02 Aug - 18:52:31 10° NW 18:59:13 56° NE 19:06:20 10° ESE visible
02 Aug - 20:40:14 10° WNW 20:46:31 33° SW 20:52:52 10° SSE visible
